Wind_Speed
8 8 8 8 9 8 9 9 9 10 9 10 10 10 10 10 9 8 8 7 8 8 8 8 7 6 6 6 4 4 3 2 2 2 2 3 2 2 2 2 2 2 2
8 8 8 9 8 8 9 9 9 10 10 10 10 10 10 10 9 8 8 8 8 8 8 8 8 6 6 5 5 5 5 4 3 2 2 2 1 1 1 1 1 2 2
8 8 9 9 9 9 9 9 9 9 9 9 9 9 9 9 8 8 7 8 8 8 8 8 7 7 6 6 5 5 5 4 4 3 2 2 1 1 0 1 1 1 2
8 8 8 8 8 8 9 9 9 9 8 8 9 10 9 8 8 7 7 7 8 8 8 8 6 6 5 4 4 4 4 4 4 4 3 2 1 1 1 1 1 1 2
7 7 8 8 8 8 8 8 9 9 9 9 9 9 9 8 8 7 7 7 7 7 7 7 5 5 4 4 3 3 3 4 4 3 3 2 1 0 0 1 1 1 2
7 7 8 8 8 8 8 8 8 8 8 8 8 8 8 8 7 7 7 6 6 6 6 6 5 4 4 3 3 3 3 3 3 2 2 1 1 1 1 1 1 1 2
8 8 8 8 8 8 9 9 7 7 7 7 7 7 8 7 7 6 7 6 6 6 5 5 4 3 3 2 3 3 3 3 3 2 2 2 2 2 1 1 2 2 2
7 8 7 7 8 8 8 8 8 7 7 6 7 7 7 7 6 6 7 6 6 5 5 4 4 3 3 3 3 3 4 4 3 2 2 2 3 2 2 2 2 2 2
7 8 7 7 8 8 8 8 7 6 6 6 6 6 6 6 5 5 5 5 5 4 4 4 4 3 3 2 3 3 3 4 4 3 3 3 3 3 2 2 2 3 4
7 7 7 7 8 8 8 7 6 5 5 5 5 4 4 4 4 4 5 5 4 4 4 4 4 3 3 3 3 3 3 4 3 3 3 3 3 3 3 3 4 4 5
6 6 6 7 7 7 6 5 5 5 5 4 4 4 4 3 3 3 4 4 3 3 3 3 3 3 3 3 3 3 4 4 3 4 3 3 4 4 4 4 5 5 5
6 6 6 7 6 6 5 5 4 4 4 4 3 3 4 3 2 2 3 2 2 2 2 2 2 2 2 3 3 4 4 4 4 5 4 4 4 4 5 5 5 6 6
6 6 6 6 5 5 5 5 5 5 5 4 4 3 3 3 3 3 2 2 2 2 2 2 3 3 3 4 4 5 4 4 5 5 5 5 5 5 6 6 6 7 7
6 6 6 6 5 4 5 5 5 5 4 3 3 3 3 3 3 2 2 2 2 2 3 3 4 4 4 5 5 5 5 5 6 6 5 5 6 6 6 7 7 8 8
5 5 5 5 5 4 4 3 3 4 4 3 2 2 2 3 3 2 1 2 2 3 4 4 4 5 4 5 5 6 6 6 7 7 6 6 7 7 7 8 8 9 9
4 4 4 4 4 4 3 2 3 3 2 2 2 2 2 2 2 2 3 3 3 4 4 5 4 4 5 6 6 7 7 7 8 8 7 7 8 8 9 9 10 10 10
4 4 3 3 3 3 2 2 2 1 1 1 1 1 1 1 2 2 3 4 4 5 4 4 4 5 5 6 7 7 7 8 8 9 8 8 9 10 10 10 11 11 11
3 3 3 2 2 2 2 1 1 1 1 1 1 1 1 2 2 2 3 4 5 5 4 4 5 6 6 6 8 8 8 8 8 9 9 9 10 10 10 10 10 11 11
2 2 2 1 2 2 2 2 2 2 1 2 2 2 2 2 2 2 3 4 5 5 4 5 6 6 7 8 8 9 9 9 9 10 10 10 10 10 10 10 10 11 11
2 2 2 1 2 2 2 2 2 2 2 2 2 2 2 2 2 2 3 4 5 5 5 5 6 7 8 9 9 10 10 11 11 10 11 11 11 11 11 11 11 11 12
3 2 2 1 1 1 1 1 2 3 3 3 2 2 2 3 3 4 4 5 5 5 6 6 7 8 9 10 11 11 12 12 13 12 11 12 12 11 12 12 12 12 12
3 3 2 2 3 2 3 3 3 3 4 3 3 4 4 4 4 4 5 6 6 6 6 7 8 9 11 11 12 12 13 13 14 13 12 13 13 12 12 12 12 12 12
4 4 4 4 4 4 4 5 5 5 5 5 5 5 4 5 5 5 5 6 7 8 8 9 10 11 12 13 13 14 13 13 13 13 13 13 13 13 13 13 13 12 12
5 6 6 6 5 5 6 6 6 7 7 7 6 6 6 6 6 6 7 8 8 9 9 10 11 12 13 13 14 14 13 13 13 13 13 13 13 13 13 13 13 13 13
7 7 7 7 7 7 7 8 8 8 8 9 8 8 8 8 8 9 9 10 11 11 11 12 13 13 13 13 14 14 13 14 14 14 14 14 14 14 14 14 14 14 15
9 9 9 9 9 9 10 10 10 11 11 11 11 11 11 11 11 11 11 12 13 13 14 14 14 15 15 15 15 14 14 16 16 16 15 15 15 15 15 16 16 16 16
Wind_Direction
100 106 107 111 112 111 119 123 124 125 120 112 111 116 115 111 108 110 106 103 106 102 103 104 103 100 94 92 98 96 87 79 86 83 79 93 106 100 115 139 162 167 171
96 101 107 113 114 115 119 123 126 126 121 114 109 110 115 112 108 108 107 105 105 105 107 104 97 94 91 95 85 76 68 70 72 87 82 85 109 106 115 140 166 182 191
98 101 107 113 115 116 117 121 124 121 118 114 110 107 109 109 105 106 106 104 104 102 103 103 94 91 87 86 78 65 61 64 63 72 67 63 82 79 159 176 193 200 208
100 101 105 112 116 118 121 125 125 122 118 114 111 108 106 106 107 111 109 106 104 105 105 104 96 91 87 83 75 60 61 62 50 51 59 59 67 117 176 239 221 223 216
99 105 109 116 121 124 123 123 128 126 119 117 115 110 105 106 108 111 109 106 104 105 105 102 98 91 80 76 70 55 55 48 31 36 40 42 40 93 200 300 276 240 227
99 110 114 120 124 125 127 130 132 128 122 120 118 111 106 105 105 107 107 108 105 107 100 93 97 96 79 77 58 44 48 43 20 14 21 15 354 285 275 289 290 269 258
99 110 117 123 125 127 133 134 129 127 126 126 120 114 108 101 97 98 101 105 103 102 98 94 100 95 85 66 45 50 37 32 8 4 10 356 332 306 285 261 273 276 276
100 107 114 118 123 125 129 130 126 125 127 131 123 119 113 107 98 94 99 102 102 97 89 92 89 82 65 45 51 41 22 9 357 351 345 327 324 302 276 262 269 285 286
98 105 107 115 119 120 124 129 125 130 128 127 129 128 119 112 103 98 92 87 90 90 87 68 72 68 54 33 31 28 15 360 346 339 335 323 317 301 290 297 292 291 290
102 107 109 115 121 125 126 124 121 122 122 125 130 123 120 112 103 99 92 90 82 75 68 63 59 53 42 19 13 7 3 358 353 348 341 329 320 310 299 299 295 291 290
106 112 112 120 123 124 127 124 125 124 124 120 123 121 118 113 104 96 96 92 84 75 63 53 42 42 31 9 359 356 350 349 351 344 339 335 329 321 303 300 296 288 285
103 110 115 116 121 120 120 119 128 134 128 116 115 117 117 111 89 77 88 90 74 62 51 39 22 358 358 352 347 346 342 337 332 331 336 335 330 322 310 300 296 287 283
99 108 112 114 122 119 115 116 120 128 121 116 111 103 106 92 75 63 71 66 31 14 4 357 345 332 322 327 332 331 334 333 328 327 325 325 323 316 307 298 296 293 287
95 106 109 109 111 115 110 109 115 117 116 118 101 109 100 84 68 60 55 25 354 355 346 332 328 323 311 308 324 323 323 324 325 326 317 312 311 308 305 301 297 295 291
91 99 102 102 100 109 106 107 116 126 118 108 88 97 85 69 56 50 44 354 319 323 329 329 330 332 323 331 321 320 320 317 315 315 308 305 304 302 302 301 297 295 291
89 100 103 92 94 112 106 107 127 144 125 96 85 97 74 46 38 22 358 337 319 313 316 322 332 336 340 329 323 320 314 308 307 307 304 303 303 302 302 299 296 295 294
84 92 102 83 84 90 86 90 108 147 148 94 43 57 40 2 344 341 339 337 333 325 318 325 326 330 332 328 324 320 314 309 311 310 307 304 304 302 299 297 298 295 291
79 82 86 67 61 57 54 67 66 52 66 41 350 339 320 312 309 324 330 333 335 334 331 334 338 335 335 329 326 326 323 317 319 317 313 311 309 306 303 303 300 295 292
55 53 52 45 38 36 32 29 27 37 17 329 316 312 313 308 313 323 325 333 337 334 332 331 334 331 328 324 324 326 326 321 317 315 312 310 309 306 302 301 299 294 290
29 25 22 7 14 20 25 12 1 355 351 330 326 329 324 318 320 326 320 327 331 330 331 329 328 325 323 322 321 322 320 317 315 312 309 307 305 303 301 298 296 295 295
11 8 12 358 354 4 5 340 327 331 335 340 339 336 325 317 318 313 309 315 319 320 323 324 321 320 322 324 321 318 318 316 313 309 306 307 305 302 300 298 295 293 293
347 343 331 316 309 299 303 319 320 325 325 324 325 320 315 307 307 309 304 303 304 307 311 315 314 313 315 317 317 316 315 313 311 308 304 305 304 302 300 297 295 294 292
329 330 318 304 299 288 288 297 305 311 308 305 308 305 303 300 302 306 301 299 297 300 304 307 309 310 310 310 311 315 315 312 313 309 305 303 300 300 300 299 294 293 292
310 317 315 308 301 293 290 293 295 298 301 302 301 296 296 297 297 298 298 300 299 298 299 300 303 305 307 306 308 312 312 307 306 311 307 303 301 298 297 297 294 293 292
297 302 306 307 302 295 294 293 296 295 294 295 294 292 292 292 294 294 292 293 294 295 295 297 300 303 305 304 305 308 310 310 305 307 307 302 299 296 296 295 292 292 292
296 296 298 297 295 293 291 291 290 291 292 292 290 289 289 289 289 289 290 291 291 292 293 294 295 299 302 302 302 303 306 309 305 303 303 301 299 297 294 294 293 291 291
Height
5891 5890 5890 5890 5890 5891 5891 5891 5891 5891 5892 5892 5891 5891 5892 5892 5892 5892 5892 5892 5892 5892 5893 5893 5893 5894 5894 5893 5894 5894 5894 5893 5893 5893 5893 5893 5894 5894 5894 5894 5894 5894 5894
5892 5891 5891 5891 5891 5892 5892 5892 5892 5893 5893 5893 5893 5893 5893 5893 5893 5893 5893 5893 5893 5893 5894 5894 5894 5894 5894 5895 5895 5894 5894 5894 5894 5894 5894 5894 5894 5894 5894 5894 5894 5894 5894
5893 5892 5892 5892 5892 5893 5893 5893 5894 5894 5894 5894 5894 5894 5894 5894 5894 5894 5894 5894 5894 5894 5894 5895 5895 5895 5896 5896 5895 5895 5895 5895 5895 5895 5894 5894 5894 5894 5894 5894 5894 5894 5894
5894 5893 5893 5893 5893 5894 5894 5894 5895 5895 5895 5896 5896 5896 5896 5896 5896 5895 5895 5895 5895 5895 5896 5896 5896 5896 5897 5896 5896 5896 5896 5895 5895 5895 5895 5895 5894 5894 5894 5894 5894 5894 5894
5895 5895 5894 5894 5895 5895 5895 5896 5896 5896 5897 5897 5897 5897 5897 5897 5897 5896 5896 5896 5896 5897 5897 5897 5897 5897 5897 5897 5897 5897 5896 5896 5896 5896 5895 5895 5895 5894 5894 5895 5894 5894 5894
5896 5896 5895 5896 5896 5896 5897 5897 5897 5898 5898 5898 5898 5898 5898 5898 5898 5898 5897 5897 5897 5898 5898 5897 5897 5898 5898 5898 5898 5897 5897 5897 5896 5896 5896 5895 5895 5895 5894 5894 5894 5894 5894
5897 5897 5897 5897 5897 5897 5898 5898 5898 5899 5899 5899 5899 5899 5899 5899 5899 5899 5898 5898 5898 5898 5899 5899 5899 5899 5899 5898 5898 5898 5898 5897 5897 5896 5896 5896 5895 5895 5894 5894 5894 5894 5893
5898 5898 5898 5898 5898 5899 5899 5899 5900 5900 5900 5900 5901 5901 5901 5901 5901 5900 5899 5899 5899 5899 5900 5899 5899 5899 5899 5899 5899 5899 5898 5898 5897 5896 5896 5895 5895 5895 5894 5894 5894 5894 5893
5900 5899 5899 5900 5899 5900 5900 5900 5901 5901 5901 5901 5902 5902 5902 5902 5902 5901 5901 5901 5900 5900 5900 5900 5900 5900 5900 5899 5899 5899 5898 5898 5897 5896 5895 5895 5895 5894 5894 5894 5893 5893 5893
5901 5901 5901 5901 5901 5901 5902 5902 5902 5902 5902 5902 5902 5903 5903 5902 5902 5902 5902 5902 5902 5901 5901 5901 5901 5900 5900 5900 5899 5899 5898 5897 5897 5896 5895 5895 5894 5894 5893 5893 5893 5892 5892
5903 5903 5903 5903 5903 5903 5903 5903 5903 5903 5903 5903 5903 5903 5903 5903 5903 5903 5903 5903 5903 5902 5902 5901 5901 5901 5900 5900 5899 5899 5898 5897 5896 5896 5895 5894 5894 5893 5893 5892 5892 5891 5891
5904 5904 5904 5904 5904 5904 5904 5904 5904 5904 5904 5904 5904 5904 5904 5903 5903 5903 5903 5903 5903 5903 5902 5902 5901 5901 5900 5899 5899 5898 5898 5897 5896 5895 5895 5894 5893 5893 5892 5891 5891 5890 5890
5906 5906 5905 5905 5905 5905 5905 5905 5905 5904 5904 5904 5904 5904 5904 5904 5904 5904 5904 5903 5903 5903 5902 5902 5901 5900 5900 5899 5899 5898 5897 5896 5896 5895 5894 5894 5893 5892 5891 5891 5890 5889 5889
5907 5907 5906 5906 5906 5906 5906 5905 5906 5906 5905 5905 5905 5905 5905 5905 5904 5904 5904 5903 5903 5903 5902 5901 5901 5900 5899 5898 5898 5897 5897 5896 5895 5894 5893 5893 5892 5891 5890 5890 5889 5888 5887
5909 5908 5908 5908 5907 5907 5907 5907 5906 5906 5906 5906 5906 5905 5905 5905 5905 5904 5904 5903 5903 5902 5902 5901 5900 5899 5899 5898 5897 5897 5896 5895 5894 5893 5892 5892 5891 5890 5889 5888 5887 5886 5885
5910 5910 5909 5909 5908 5908 5908 5907 5907 5907 5906 5906 5906 5906 5906 5905 5905 5904 5904 5903 5903 5902 5901 5900 5899 5899 5898 5897 5896 5896 5895 5894 5893 5892 5891 5890 5889 5888 5887 5886 5885 5884 5883
5911 5911 5910 5910 5909 5909 5908 5908 5907 5907 5906 5906 5906 5906 5906 5905 5905 5904 5903 5903 5902 5901 5900 5900 5899 5898 5897 5896 5895 5894 5893 5892 5891 5890 5889 5888 5887 5886 5885 5884 5883 5882 5881
5912 5911 5911 5911 5910 5909 5908 5908 5907 5907 5906 5906 5906 5905 5905 5905 5904 5904 5903 5902 5901 5901 5900 5899 5899 5898 5896 5895 5894 5893 5891 5890 5889 5888 5887 5885 5884 5883 5882 5881 5880 5879 5878
5912 5912 5912 5911 5910 5910 5909 5908 5907 5907 5906 5906 5906 5905 5904 5904 5904 5903 5902 5902 5901 5900 5899 5899 5898 5897 5895 5894 5893 5891 5890 5888 5887 5886 5885 5883 5882 5881 5880 5879 5878 5877 5876
5913 5912 5912 5912 5911 5910 5909 5908 5908 5907 5906 5906 5905 5905 5904 5904 5903 5902 5902 5901 5900 5899 5899 5898 5897 5895 5894 5893 5891 5889 5888 5886 5885 5884 5882 5881 5880 5878 5877 5876 5875 5874 5873
5913 5913 5912 5912 5911 5910 5909 5908 5908 5907 5906 5905 5905 5904 5903 5903 5902 5902 5901 5900 5899 5898 5897 5896 5895 5894 5892 5891 5889 5888 5886 5884 5882 5881 5880 5879 5877 5876 5875 5874 5872 5871 5870
5913 5913 5912 5911 5911 5910 5909 5908 5907 5907 5906 5905 5904 5904 5903 5902 5901 5901 5900 5899 5898 5897 5896 5895 5894 5892 5890 5889 5887 5885 5884 5882 5880 5878 5877 5876 5875 5873 5872 5871 5869 5868 5867
5913 5912 5911 5911 5910 5909 5908 5908 5907 5906 5905 5904 5904 5903 5902 5901 5900 5899 5898 5898 5896 5895 5894 5893 5892 5890 5888 5887 5885 5883 5881 5879 5877 5876 5874 5873 5872 5870 5869 5868 5866 5865 5864
5913 5912 5911 5910 5909 5908 5908 5907 5906 5905 5904 5903 5903 5902 5901 5900 5899 5898 5897 5896 5895 5893 5892 5891 5889 5888 5886 5884 5882 5881 5879 5877 5875 5874 5872 5870 5869 5868 5866 5865 5863 5862 5861
5912 5911 5910 5909 5908 5908 5907 5906 5905 5904 5903 5902 5901 5900 5899 5898 5897 5896 5895 5894 5892 5891 5889 5888 5887 5885 5883 5881 5879 5878 5876 5874 5872 5871 5869 5867 5866 5864 5863 5861 5860 5859 5857
5911 5910 5909 5908 5907 5906 5905 5904 5904 5903 5902 5901 5900 5899 5898 5896 5895 5894 5892 5891 5889 5888 5886 5885 5883 5881 5880 5878 5876 5874 5873 5871 5869 5867 5865 5863 5862 5861 5859 5858 5856 5855 5854